Location: Janeiro
(34.9957°N, 76.7652°W)
Time: 16:31:14
(UTC+00:00)

STARLINK-38 - Pass Details

Date: 14 December 2019
Orbit: 529 x 530 km, 53.0° (Epoch: 28 January)

Event Time Altitude Azimuth Distance (km) Brightness Sun altitude
Rises 23:53:17 0° 231° (SW) 2,650 8.2 -23.2°
Reaches altitude 10° 23:55:30 10° 234° (SW) 1,764 7.1 -23.6°
Enters shadow 23:59:11 64° 287° (WNW) 586 3.8 -24.4°
